Regional Weather Roundup
Issued by NWS

Home | Current Version | Previous Version | Text Only | Print | Product List | Glossary Off
Versions: 1 2 3 4 5 6 7 8 9 10 11 12 13 14 15 16 17 18 19 20 21 22 23 24 25 26 27 28 29 30 31 32 33 34 35 36 37 38 39 40 41 42 43 44 45 46 47 48 49 50

000
ASUS43 KFSD 251302
RWRSD

WEATHER ROUNDUP FOR SOUTH DAKOTA
NATIONAL WEATHER SERVICE SIOUX FALLS SD
800 AM CDT TUE JUL 25 2017

NOTE: "FAIR" INDICATES FEW OR NO CLOUDS BELOW 12,000 FEET WITH NO
SIGNIFICANT WEATHER AND/OR OBSTRUCTIONS TO VISIBILITY.


SDZ001>005-009-010-012>017-251400-
NORTHWEST AND NORTH CENTRAL SOUTH DAKOTA

CITY           SKY/WX    TMP DP  RH WIND       PRES   REMARKS
BUFFALO          N/A     69  61  75 NE24      29.84F
FAITH            N/A     75  62  64 NE14      29.85F
MOBRIDGE       PTSUNNY   70  67  90 NE5       29.83F
$$

SDZ012>016-024>037-041>051-057-063-072>074-251400-
SOUTHWEST AND SOUTH CENTRAL SOUTH DAKOTA

CITY           SKY/WX    TMP DP  RH WIND       PRES   REMARKS
RAPID CTY ARPT CLOUDY    69  62  78 NW9       29.93R
PIERRE         MOSUNNY   73  65  75 CALM      29.83R
CUSTER         SUNNY     66  46  48 E12       30.07R
ELLSWORTH AFB  CLOUDY    71  64  79 NW7       29.93R
PHILIP         SUNNY     73  63  70 E7        29.86R
PINE RIDGE     MOSUNNY   73  63  70 S3        29.90R
SPEARFISH      FAIR      70  57  64 S8        29.98F
WINNER         FAIR      80  60  50 SW18G28   29.83S
$$

SDZ004>011-016>023-039-040-251400-
NORTHEAST SOUTH DAKOTA

CITY           SKY/WX    TMP DP  RH WIND       PRES   REMARKS
ABERDEEN       MOSUNNY   71  67  87 CALM      29.86R
WATERTOWN      SUNNY     69  32  25 S13       29.87S
BROOKINGS      SUNNY     70  66  87 S15       29.91R
SISSETON         N/A     69  67  93 S9        29.85S
$$

SDZ017-020-022-023-036>040-048>070-251400-
SOUTHEAST SOUTH DAKOTA

CITY           SKY/WX    TMP DP  RH WIND       PRES   REMARKS
SIOUX FALLS    CLOUDY    73  69  87 S13       29.92S
HURON          MOSUNNY   73  69  87 S12       29.83R
CHAMBERLAIN    SUNNY     81  64  56 W3        29.85R
MITCHELL       SUNNY     76  69  79 S9        29.85R
YANKTON        SUNNY     79  69  71 S8        29.91R
$$

ABBREVIATIONS USED IN REMARKS
   TC - TEMPERATURE IN CELSIUS
  WCI - WIND CHILL INDEX
   HX - HEAT INDEX
  VSB - VISIBILITY




USA.gov is the U.S. government's official web portal to all federal, state and local government web resources and services.